Location: El Portezuelo
(28.4984°N, 16.3589°W)
Time: 01:23:59
(UTC+00:00)

SL-14 R/B - Pass Details

Date: 20 January 2020
Orbit: 518 x 555 km, 82.4° (Epoch: 28 February)

Event Time Altitude Azimuth Distance (km) Brightness Sun altitude
Exits shadow 06:05:58 59° 138° (SE) 602 3.6 -24.4°
Drops below altitude 10° 06:09:13 10° 168° (SSE) 1,740 6.1 -23.8°
Sets 06:11:20 0° 171° (S) 2,623 7.0 -23.3°
